Location: Newark
(39.2833°N, 16.3333°E)
Time: 21:08:39
(UTC+00:00)

LightSail 2 - Visible Passes

Search period start: 13 October 2019 00:00
Search period end: 23 October 2019 00:00
Orbit: 707 x 723 km, 24.0° (Epoch: 13 October)

Date Brightness Start Highest point End Pass type
(mag) Time Alt. Az. Time Alt. Az. Time Alt. Az.
13 Oct 7.4 17:21:31 10° SSW 17:23:32 12° S 17:25:34 10° SSE visible
14 Oct 7.2 18:08:12 10° SSW 18:10:57 14° S 18:11:28 14° S visible
15 Oct 7.4 17:11:01 10° SSW 17:13:38 14° S 17:16:15 10° SE visible
15 Oct 7.7 18:56:05 10° SW 18:56:27 11° SSW 18:56:27 11° SSW visible
16 Oct 7.3 17:58:27 10° SW 18:01:02 14° S 18:02:27 13° SSE visible
17 Oct 7.4 17:00:59 10° SSW 17:03:41 14° S 17:06:24 10° SSE visible
18 Oct 7.5 17:49:11 10° SSW 17:51:03 12° S 17:52:55 10° SSE visible
19 Oct 7.5 16:51:21 10° SW 16:53:42 13° S 16:56:05 10° SSE visible
21 Oct 7.7 16:42:29 10° SSW 16:43:40 11° SSW 16:44:52 10° S visible
